SNAP-3 EDDIE

Last updated on Sun Jun 21 2026 00:03:50 GMT+0000 (Coordinated Universal Time)

1 40972U 15058J 26171.17364434 .00117223 00000+0 12952-2 0 9996 2 40972 64.7418 84.3057 0026977 14.7886 345.4044 15.61994061119496
UTC large
Height (km)
Speed (km/s)
/
Latitude / Longitude
Inclination (degrees)
Orbital Period (minutes)
Azimuth
Elevation
Range (km)
Doppler Factor

Next 0 passes for location: London (51.5072 / 0.1276)

No passes found over London.
SNAP-3 EDDIE